Home   Weather   Kassel   Past weeks

Flag for Germany Past Weather in Kassel, Hesse, Germany — Yesterday and Last 2 Weeks

Now
64 °F

Partly sunny.


Feels Like: 64 °F
Forecast: 48 / 57 °F
Wind: 9 mph from Southwest

Location: Kassel / Calden

Current Time: Sep 30, 2016 at 1:43:43 PM

Latest Report: Sep 30, 2016 at 12:50 PM


Visibility: N/A

Pressure: 29.95 "Hg

Humidity: 56%

Dew Point: 48 °F

Location of KasselLocation

Past Weather in Kassel — Graph

°F

Kassel Temperature Yesterday

Maximum temperature yesterday: 75 °F (at 3:50 PM)
Minimum temperature yesterday: 57 °F (at 7:20 AM)
Average temperature yesterday: 67 °F

High & Low Weather Summary for the Past Weeks

 TemperatureHumidityPressure
High82 °F (Sep 15, 2:20 PM)100% (Sep 16, 7:20 AM)30.33 "Hg (Sep 16, 7:20 AM)
Low43 °F (Sep 21, 7:20 AM)35% (Sep 15, 2:50 PM)29.86 "Hg (Sep 15, 3:50 PM)
Average63 °F70%30.11 "Hg
* Reported Sep 15 11:20 AM — Sep 30 11:50 AM, Kassel, Weather by CustomWeather, © 2016

Note: Actual official high and low records may vary slightly from our data, if they occured in-between our weather recording intervals... More about our weather records

Advertising

Kassel Weather History for the Previous 24 Hours

Scroll right to see more
 ConditionsComfort  
Time TempWeatherWind HumidityBarometerVisibility
11:50 AM
Fri, Sep 30
64 °FScattered clouds.9 mph56%29.95 "HgN/A
11:20 AM61 °FSunny.10 mph63%29.95 "Hg10 mi
10:50 AM61 °FScattered clouds.9 mph68%29.95 "HgN/A
10:20 AM59 °FSunny.9 mph72%29.95 "Hg10 mi
9:50 AM59 °FSunny.12 mph68%29.95 "Hg10 mi
9:20 AM59 °FSunny.12 mph72%29.95 "Hg10 mi
8:50 AM59 °FSunny.9 mph68%29.95 "Hg10 mi
8:20 AM57 °FPartly sunny.8 mph72%29.95 "HgN/A
7:50 AM57 °FPartly sunny.7 mph72%29.95 "HgN/A
7:20 AM57 °FPassing clouds.6 mph72%29.95 "HgN/A
7:50 PM
Thu, Sep 29
68 °FPassing clouds.5 mph60%29.92 "HgN/A
7:20 PM68 °FPassing clouds.6 mph60%29.92 "HgN/A
6:50 PM70 °FSunny.10 mph57%29.92 "Hg10 mi
6:20 PM72 °FSunny.16 mph53%29.92 "Hg10 mi
5:50 PM72 °FSunny.14 mph53%29.92 "Hg10 mi
5:20 PM73 °FPassing clouds.16 mph47%29.92 "HgN/A
4:50 PM73 °FSunny.18 mph50%29.92 "Hg10 mi
4:20 PM75 °FSunny.20 mph47%29.92 "Hg10 mi
3:50 PM75 °FPassing clouds.16 mph47%29.92 "HgN/A
3:20 PM73 °FSunny.15 mph53%29.95 "Hg10 mi
2:50 PM73 °FPassing clouds.16 mph57%29.95 "HgN/A
2:20 PM72 °FSunny.16 mph61%29.98 "Hg10 mi
1:50 PM70 °FSunny.16 mph60%29.98 "Hg10 mi
1:20 PM70 °FSunny.16 mph60%30.01 "Hg10 mi
Weather by CustomWeather, © 2016

See weather overviewHow to use our weather pages